Meteo pe oră la Dab

Astăzi, 10 Aprilie, Sâmbătă

Timp Temperatura Precipitaţii Vânt Presiune Umiditate
00:00 +5°C° 0 mm 2 m/s 754 mmHg 77%
01:00 +5°C° 0 mm 2 m/s 754 mmHg 79%
02:00 +5°C° 0 mm 2 m/s 754 mmHg 80%
03:00 +4°C° 0 mm 2 m/s 754 mmHg 82%
04:00 +4°C° 0 mm 2 m/s 753 mmHg 83%
05:00 +6°C° 0 mm 1 m/s 754 mmHg 80%
06:00 +7°C° 0 mm 1 m/s 754 mmHg 77%
07:00 +8°C° 0 mm 1 m/s 754 mmHg 73%
08:00 +8°C° 0.8 mm 1 m/s 754 mmHg 78%
09:00 +7°C° 0.8 mm 1 m/s 754 mmHg 83%
10:00 +6°C° 0.8 mm 2 m/s 755 mmHg 89%
11:00 +7°C° 0.4 mm 1 m/s 755 mmHg 90%
12:00 +7°C° 0.4 mm 1 m/s 755 mmHg 91%
13:00 +7°C° 0.4 mm 1 m/s 755 mmHg 92%
14:00 +7°C° 0 mm 1 m/s 756 mmHg 91%
15:00 +8°C° 0 mm 1 m/s 756 mmHg 90%
16:00 +8°C° 0 mm 1 m/s 756 mmHg 89%
17:00 +8°C° 0 mm 1 m/s 756 mmHg 90%
18:00 +7°C° 0 mm 1 m/s 756 mmHg 92%
19:00 +7°C° 0 mm 1 m/s 757 mmHg 93%
20:00 +7°C° 0 mm 1 m/s 757 mmHg 93%
21:00 +6°C° 0 mm 2 m/s 757 mmHg 94%
22:00 +6°C° 0 mm 2 m/s 757 mmHg 94%
23:00 +6°C° 0 mm 2 m/s 756 mmHg 95%

Mâine, 11 Aprilie, Duminică

Timp Temperatura Precipitaţii Vânt Presiune Umiditate
00:00 +6°C° 0 mm 2 m/s 756 mmHg 95%
01:00 +4°C° 0 mm 3 m/s 756 mmHg 95%
02:00 +5°C° 0 mm 3 m/s 755 mmHg 95%
03:00 +5°C° 0 mm 3 m/s 755 mmHg 94%
04:00 +5°C° 0 mm 3 m/s 755 mmHg 94%
05:00 +5°C° 0 mm 4 m/s 754 mmHg 90%
06:00 +6°C° 0 mm 4 m/s 754 mmHg 87%
07:00 +7°C° 0 mm 4 m/s 754 mmHg 83%
08:00 +9°C° 0 mm 5 m/s 754 mmHg 75%
09:00 +10°C° 0 mm 5 m/s 754 mmHg 68%
10:00 +13°C° 0 mm 5 m/s 754 mmHg 60%
11:00 +14°C° 0 mm 5 m/s 754 mmHg 56%
12:00 +15°C° 0 mm 5 m/s 753 mmHg 52%
13:00 +17°C° 0 mm 4 m/s 753 mmHg 48%
14:00 +17°C° 0 mm 4 m/s 753 mmHg 50%
15:00 +17°C° 0 mm 4 m/s 753 mmHg 51%
16:00 +16°C° 0 mm 5 m/s 753 mmHg 52%
17:00 +15°C° 0 mm 5 m/s 753 mmHg 58%
18:00 +13°C° 0 mm 5 m/s 753 mmHg 64%
19:00 +10°C° 0 mm 5 m/s 753 mmHg 70%
20:00 +10°C° 0 mm 4 m/s 753 mmHg 74%
21:00 +10°C° 0 mm 4 m/s 753 mmHg 77%
22:00 +9°C° 0 mm 3 m/s 753 mmHg 80%
23:00 +8°C° 0 mm 3 m/s 753 mmHg 82%

Poimâine, 12 Aprilie, Luni

Timp Temperatura Precipitaţii Vânt Presiune Umiditate
00:00 +8°C° 0 mm 2 m/s 753 mmHg 84%
01:00 +8°C° 0 mm 2 m/s 753 mmHg 86%
02:00 +8°C° 0 mm 2 m/s 753 mmHg 86%
03:00 +8°C° 0 mm 2 m/s 753 mmHg 86%
04:00 +8°C° 0 mm 2 m/s 753 mmHg 85%
05:00 +8°C° 0 mm 3 m/s 754 mmHg 87%
06:00 +8°C° 0 mm 3 m/s 754 mmHg 88%
07:00 +8°C° 0 mm 4 m/s 755 mmHg 90%
08:00 +7°C° 0 mm 4 m/s 755 mmHg 88%
09:00 +7°C° 0 mm 4 m/s 756 mmHg 86%
10:00 +7°C° 0 mm 4 m/s 756 mmHg 84%
11:00 +6°C° 0 mm 5 m/s 757 mmHg 83%
12:00 +6°C° 0 mm 5 m/s 757 mmHg 83%
13:00 +5°C° 0 mm 5 m/s 758 mmHg 82%
14:00 +5°C° 0.1 mm 5 m/s 758 mmHg 86%
15:00 +3°C° 0.1 mm 5 m/s 758 mmHg 89%
16:00 +3°C° 0.1 mm 5 m/s 758 mmHg 92%
17:00 +2°C° 0.2 mm 5 m/s 759 mmHg 93%
18:00 +2°C° 0.2 mm 5 m/s 759 mmHg 94%
19:00 +2°C° 0.2 mm 5 m/s 760 mmHg 96%
20:00 +3°C° 0.3 mm 4 m/s 760 mmHg 95%
21:00 +1°C° 0.3 mm 4 m/s 761 mmHg 94%
22:00 +1°C° 0.3 mm 4 m/s 761 mmHg 93%
23:00 +2°C° 0.2 mm 3 m/s 761 mmHg 91%

13 Aprilie, Marţi

Timp Temperatura Precipitaţii Vânt Presiune Umiditate
00:00 +2°C° 0.2 mm 3 m/s 761 mmHg 90%
01:00 +3°C° 0.2 mm 2 m/s 761 mmHg 88%
02:00 +3°C° 0 mm 2 m/s 761 mmHg 87%
03:00 +2°C° 0 mm 3 m/s 761 mmHg 86%
04:00 +2°C° 0 mm 3 m/s 761 mmHg 85%
05:00 +2°C° 0 mm 3 m/s 762 mmHg 84%
06:00 +2°C° 0 mm 3 m/s 762 mmHg 83%
07:00 +1°C° 0 mm 4 m/s 762 mmHg 82%
08:00 +3°C° 0 mm 4 m/s 762 mmHg 75%
09:00 +4°C° 0 mm 4 m/s 762 mmHg 67%
10:00 +5°C° 0 mm 5 m/s 763 mmHg 60%
11:00 +6°C° 0 mm 5 m/s 762 mmHg 53%
12:00 +7°C° 0 mm 5 m/s 762 mmHg 46%
13:00 +8°C° 0 mm 5 m/s 762 mmHg 39%
14:00 +8°C° 0 mm 5 m/s 761 mmHg 39%
15:00 +8°C° 0 mm 5 m/s 761 mmHg 38%
16:00 +8°C° 0 mm 5 m/s 761 mmHg 38%
17:00 +7°C° 0 mm 4 m/s 761 mmHg 44%
18:00 +7°C° 0 mm 3 m/s 761 mmHg 49%
19:00 +5°C° 0 mm 3 m/s 761 mmHg 55%
20:00 +5°C° 0 mm 2 m/s 762 mmHg 58%
21:00 +5°C° 0 mm 2 m/s 762 mmHg 62%
22:00 +4°C° 0 mm 2 m/s 762 mmHg 65%
23:00 +4°C° 0 mm 2 m/s 762 mmHg 68%

14 Aprilie, Miercuri

Timp Temperatura Precipitaţii Vânt Presiune Umiditate
00:00 +3°C° 0 mm 2 m/s 762 mmHg 70%
01:00 +3°C° 0 mm 2 m/s 762 mmHg 73%
02:00 +3°C° 0 mm 2 m/s 762 mmHg 75%
03:00 +3°C° 0 mm 2 m/s 762 mmHg 77%
04:00 +2°C° 0 mm 2 m/s 762 mmHg 79%
05:00 +2°C° 0 mm 3 m/s 762 mmHg 77%
06:00 +2°C° 0 mm 3 m/s 762 mmHg 76%
07:00 +1°C° 0 mm 4 m/s 762 mmHg 74%
08:00 +3°C° 0 mm 4 m/s 762 mmHg 67%
09:00 +5°C° 0 mm 4 m/s 762 mmHg 61%
10:00 +6°C° 0 mm 5 m/s 762 mmHg 54%
11:00 +6°C° 0 mm 5 m/s 762 mmHg 50%
12:00 +7°C° 0 mm 5 m/s 762 mmHg 45%
13:00 +8°C° 0 mm 5 m/s 761 mmHg 40%
14:00 +8°C° 0 mm 5 m/s 761 mmHg 40%
15:00 +8°C° 0 mm 5 m/s 761 mmHg 39%
16:00 +8°C° 0 mm 5 m/s 761 mmHg 39%
17:00 +7°C° 0 mm 4 m/s 761 mmHg 46%
18:00 +6°C° 0 mm 4 m/s 761 mmHg 53%
19:00 +4°C° 0 mm 3 m/s 761 mmHg 59%
20:00 +4°C° 0 mm 4 m/s 761 mmHg 62%
21:00 +3°C° 0 mm 4 m/s 762 mmHg 64%
22:00 +1°C° 0 mm 4 m/s 762 mmHg 66%
23:00 +1°C° 0 mm 4 m/s 762 mmHg 68%

15 Aprilie, Joi

Timp Temperatura Precipitaţii Vânt Presiune Umiditate
00:00 0°C° 0 mm 4 m/s 762 mmHg 69%
01:00 0°C° 0 mm 4 m/s 762 mmHg 70%
02:00 0°C° 0 mm 4 m/s 762 mmHg 69%
03:00 0°C° 0 mm 4 m/s 762 mmHg 69%
04:00 -1°C° 0 mm 4 m/s 762 mmHg 68%
05:00 0°C° 0 mm 5 m/s 762 mmHg 67%
06:00 0°C° 0 mm 5 m/s 762 mmHg 66%
07:00 +1°C° 0 mm 5 m/s 762 mmHg 66%
08:00 +1°C° 0 mm 5 m/s 762 mmHg 61%
09:00 +2°C° 0 mm 6 m/s 762 mmHg 57%
10:00 +3°C° 0 mm 6 m/s 762 mmHg 52%
11:00 +3°C° 0 mm 6 m/s 762 mmHg 52%
12:00 +4°C° 0 mm 6 m/s 762 mmHg 52%
13:00 +4°C° 0 mm 7 m/s 762 mmHg 52%
14:00 +4°C° 0.1 mm 6 m/s 762 mmHg 59%
15:00 +3°C° 0.1 mm 6 m/s 762 mmHg 66%
16:00 +3°C° 0.1 mm 6 m/s 762 mmHg 72%
17:00 +2°C° 0.4 mm 5 m/s 762 mmHg 80%
18:00 +2°C° 0.4 mm 5 m/s 762 mmHg 87%
19:00 +2°C° 0.4 mm 5 m/s 762 mmHg 94%
20:00 +1°C° 0.2 mm 5 m/s 762 mmHg 94%
21:00 +1°C° 0.2 mm 5 m/s 762 mmHg 94%
22:00 +1°C° 0.2 mm 5 m/s 762 mmHg 94%
23:00 +1°C° 0.2 mm 5 m/s 762 mmHg 94%
Arată mai mult

Formular de consimțământ

Meteoprog și furnizorii noștri de servicii pot stoca și accesa date personale, precum cookies, identificatori de dispozitiv sau alte tehnologii similare pe dispozitivul dumneavoastră și procesa astfel de date pentru a personaliza conținutul și reclamele, dar și pentru a oferi caracteristici de social media și pentru a analiza traficul.

  • Stocarea și/sau accesarea informațiilor pe dispozitivul dumneavoastră

    Cookies, identificatori de dispozitiv sau alte informații pot fi stocate sau accesate pe dispozitiv în scopurile indicate mai sus.

  • Reclame și conținut personalizat, evaluarea reclamelor și a conținutului, informații despre audiențe și dezvoltarea produselor

    Reclamele și conținutul pot fi personalizate pe baza unui profil. Pot fi adăugate date suplimentare pentru a personaliza mai bine reclamele și conținutul. Performanța reclamelor și conținutului poate fi măsurată. Pot fi obținute informații despre utilizatorii care au văzut reclamele și conținutul. Aceste date pot fi utilizate pentru a dezvolta sau îmbunătăți experiența utilizatorilor, sistemele și software-ul.

Dând clic pe ‘Sunt de acord’, permiteți utilizarea cookie-urilor menționate, a identificatorilor de dispozitiv, balizelor web sau altor tehnologii similare. Setările pot fi modificate din browser-ul dispozitivului dumneavoastră.

În anumite scopuri, interesele legitime pot prima asupra consimțământului. Puteți citi mai multe informații în acest sens în Politica privind Confidențialitatea Datelor și Cookie.